Time,TemperatureF,DewpointF,PressureIn,WindDirection,WindDirectionDegrees,WindSpeedMPH,WindSpeedGustMPH,Humidity,HourlyPrecipIn,Conditions,Clouds,dailyrainin,SoftwareType,DateUTC
2013-05-21 00:01:00,56.8,44.7,29.96,NNE,22,0.0,0.0,64,0.00,,,0.00,WUHU21623XXSP,2013-05-21 07:01:00,
2013-05-21 00:06:00,56.5,44.8,29.95,NNE,22,0.0,0.0,65,0.00,,,0.00,WUHU21623XXSP,2013-05-21 07:06:00,
2013-05-21 00:11:00,56.5,44.8,29.96,NNE,22,0.0,0.0,65,0.00,,,0.00,WUHU21623XXSP,2013-05-21 07:11:00,
2013-05-21 00:16:00,56.3,45.0,29.95,NNE,22,0.0,0.0,66,0.00,,,0.00,WUHU21623XXSP,2013-05-21 07:16:00,
2013-05-21 00:21:00,56.1,44.9,29.95,NNE,22,0.0,0.0,66,0.00,,,0.00,WUHU21623XXSP,2013-05-21 07:21:00,
2013-05-21 00:26:00,56.1,44.9,29.96,NNE,22,0.0,0.0,66,0.00,,,0.00,WUHU21623XXSP,2013-05-21 07:26:00,
2013-05-21 00:31:00,55.9,44.7,29.95,NNE,22,0.0,0.0,66,0.00,,,0.00,WUHU21623XXSP,2013-05-21 07:31:00,
2013-05-21 00:36:00,55.9,45.1,29.95,NNE,22,0.0,0.0,67,0.00,,,0.00,WUHU21623XXSP,2013-05-21 07:36:00,
2013-05-21 00:41:00,55.9,45.1,29.95,NNE,22,0.0,0.0,67,0.00,,,0.00,WUHU21623XXSP,2013-05-21 07:41:00,
2013-05-21 00:46:00,55.8,45.4,29.95,NNE,22,0.0,0.0,68,0.00,,,0.00,WUHU21623XXSP,2013-05-21 07:46:00,
2013-05-21 00:51:00,55.8,45.4,29.95,NNE,22,0.0,0.0,68,0.00,,,0.00,WUHU21623XXSP,2013-05-21 07:51:00,
2013-05-21 00:56:00,55.6,45.4,29.95,NNE,22,0.0,0.0,68,0.00,,,0.00,WUHU21623XXSP,2013-05-21 07:56:00,
2013-05-21 01:01:00,55.6,45.2,29.95,NNE,22,0.0,0.0,68,0.00,,,0.00,WUHU21623XXSP,2013-05-21 08:01:00,
2013-05-21 01:06:00,55.6,45.6,29.95,NNE,22,0.0,0.0,69,0.00,,,0.00,WUHU21623XXSP,2013-05-21 08:06:00,
2013-05-21 01:11:00,55.4,45.4,29.95,NNE,22,0.0,0.0,69,0.00,,,0.00,WUHU21623XXSP,2013-05-21 08:11:00,
2013-05-21 01:16:00,55.4,45.4,29.95,NNE,22,0.0,0.0,70,0.00,,,0.00,WUHU21623XXSP,2013-05-21 08:16:00,
2013-05-21 01:21:00,55.4,45.9,29.95,NNE,22,0.0,0.4,70,0.00,,,0.00,WUHU21623XXSP,2013-05-21 08:21:00,
2013-05-21 01:26:00,55.2,45.9,29.95,NNE,22,0.0,0.4,70,0.00,,,0.00,WUHU21623XXSP,2013-05-21 08:26:00,
2013-05-21 01:31:00,55.2,45.3,29.95,NNE,22,0.0,0.0,69,0.00,,,0.00,WUHU21623XXSP,2013-05-21 08:31:00,
2013-05-21 01:36:00,55.2,45.3,29.95,NNE,22,0.0,0.0,69,0.00,,,0.00,WUHU21623XXSP,2013-05-21 08:36:00,
2013-05-21 01:41:00,55.0,45.1,29.95,NNE,22,0.0,0.0,69,0.00,,,0.00,WUHU21623XXSP,2013-05-21 08:41:00,
2013-05-21 01:46:00,55.0,45.1,29.95,NNE,22,0.0,0.0,70,0.00,,,0.00,WUHU21623XXSP,2013-05-21 08:46:00,
2013-05-21 01:51:00,55.0,45.5,29.94,NNE,22,0.0,0.0,70,0.00,,,0.00,WUHU21623XXSP,2013-05-21 08:51:00,
2013-05-21 01:56:00,54.7,45.3,29.95,NNE,22,0.0,0.0,70,0.00,,,0.00,WUHU21623XXSP,2013-05-21 08:56:00,
2013-05-21 02:01:00,54.7,45.1,29.95,NNE,22,0.0,0.0,70,0.00,,,0.00,WUHU21623XXSP,2013-05-21 09:01:00,
2013-05-21 02:09:00,54.7,45.1,29.95,NNE,22,0.0,0.0,70,0.00,,,0.00,WUHU21623XXSP,2013-05-21 09:09:00,
2013-05-21 02:14:00,54.5,45.0,29.95,NNE,22,0.0,0.0,70,0.00,,,0.00,WUHU21623XXSP,2013-05-21 09:14:00,
2013-05-21 02:19:00,54.5,45.0,29.95,NNE,22,0.0,0.0,70,0.00,,,0.00,WUHU21623XXSP,2013-05-21 09:19:00,
2013-05-21 02:24:00,54.5,45.3,29.95,NNE,22,0.0,0.0,71,0.00,,,0.00,WUHU21623XXSP,2013-05-21 09:24:00,
2013-05-21 02:29:00,54.3,45.1,29.94,NNE,22,0.0,0.0,71,0.00,,,0.00,WUHU21623XXSP,2013-05-21 09:29:00,
2013-05-21 02:34:00,54.3,45.1,29.94,NNE,22,0.0,0.0,71,0.00,,,0.00,WUHU21623XXSP,2013-05-21 09:34:00,
2013-05-21 02:39:00,54.3,45.5,29.95,NNE,22,0.0,0.0,72,0.00,,,0.00,WUHU21623XXSP,2013-05-21 09:39:00,
2013-05-21 02:44:00,54.3,45.5,29.95,NNE,22,0.0,0.0,72,0.00,,,0.00,WUHU21623XXSP,2013-05-21 09:44:00,
2013-05-21 02:49:00,54.3,45.5,29.95,NNE,22,0.0,0.0,72,0.00,,,0.00,WUHU21623XXSP,2013-05-21 09:49:00,
2013-05-21 02:54:00,54.1,45.7,29.94,NNE,22,0.0,0.0,73,0.00,,,0.00,WUHU21623XXSP,2013-05-21 09:54:00,
2013-05-21 02:59:00,54.1,45.7,29.95,NNE,22,0.0,0.0,73,0.00,,,0.00,WUHU21623XXSP,2013-05-21 09:59:00,
2013-05-21 03:04:00,54.1,46.0,29.95,NNE,22,0.0,0.0,74,0.00,,,0.00,WUHU21623XXSP,2013-05-21 10:04:00,
2013-05-21 03:09:00,54.1,46.0,29.95,NNE,22,0.0,0.0,74,0.00,,,0.00,WUHU21623XXSP,2013-05-21 10:09:00,
2013-05-21 03:14:00,54.1,46.0,29.95,NNE,22,0.0,0.0,74,0.00,,,0.00,WUHU21623XXSP,2013-05-21 10:14:00,
2013-05-21 03:19:00,54.1,46.4,29.95,NNE,22,0.0,0.0,75,0.00,,,0.00,WUHU21623XXSP,2013-05-21 10:19:00,
2013-05-21 03:24:00,54.1,46.4,29.95,NNE,22,0.0,0.0,75,0.00,,,0.00,WUHU21623XXSP,2013-05-21 10:24:00,
2013-05-21 03:29:00,54.1,46.4,29.95,NNE,22,0.0,0.0,75,0.00,,,0.00,WUHU21623XXSP,2013-05-21 10:29:00,
2013-05-21 03:34:00,54.1,46.4,29.95,NNE,22,0.0,0.0,76,0.00,,,0.00,WUHU21623XXSP,2013-05-21 10:34:00,
2013-05-21 03:39:00,54.1,46.7,29.95,NNE,22,0.0,0.0,76,0.00,,,0.00,WUHU21623XXSP,2013-05-21 10:39:00,
2013-05-21 03:44:00,54.1,46.7,29.94,NNE,22,0.0,0.0,76,0.00,,,0.00,WUHU21623XXSP,2013-05-21 10:44:00,
2013-05-21 03:49:00,54.1,46.7,29.94,NNE,22,0.0,0.0,76,0.00,,,0.00,WUHU21623XXSP,2013-05-21 10:49:00,
2013-05-21 03:54:00,54.0,46.5,29.94,NNE,22,0.0,0.0,76,0.00,,,0.00,WUHU21623XXSP,2013-05-21 10:54:00,
2013-05-21 03:59:00,54.0,46.5,29.94,NNE,22,0.0,0.0,76,0.00,,,0.00,WUHU21623XXSP,2013-05-21 10:59:00,
2013-05-21 04:04:00,54.0,46.5,29.95,NNE,22,0.0,0.0,76,0.00,,,0.00,WUHU21623XXSP,2013-05-21 11:04:00,
2013-05-21 04:09:00,53.8,46.7,29.95,NNE,22,0.0,0.0,77,0.00,,,0.00,WUHU21623XXSP,2013-05-21 11:09:00,
2013-05-21 04:14:00,53.8,46.7,29.95,NNE,22,0.0,0.0,77,0.00,,,0.00,WUHU21623XXSP,2013-05-21 11:14:00,
2013-05-21 04:19:00,53.8,46.7,29.95,NNE,22,0.0,0.0,77,0.00,,,0.00,WUHU21623XXSP,2013-05-21 11:19:00,
2013-05-21 04:24:00,53.8,46.7,29.95,NNE,22,0.0,0.0,77,0.00,,,0.00,WUHU21623XXSP,2013-05-21 11:24:00,
2013-05-21 04:29:00,53.8,46.7,29.95,NNE,22,0.0,0.0,77,0.00,,,0.00,WUHU21623XXSP,2013-05-21 11:29:00,
2013-05-21 04:34:00,53.8,46.7,29.95,NNE,22,0.0,0.0,77,0.00,,,0.00,WUHU21623XXSP,2013-05-21 11:34:00,
2013-05-21 04:39:00,53.8,47.1,29.96,NNE,22,0.0,0.0,78,0.00,,,0.00,WUHU21623XXSP,2013-05-21 11:39:00,
2013-05-21 04:44:00,53.4,46.8,29.96,NNE,22,0.0,0.0,78,0.00,,,0.00,WUHU21623XXSP,2013-05-21 11:44:00,
2013-05-21 04:49:00,53.4,46.8,29.96,NNE,22,0.0,0.0,78,0.00,,,0.00,WUHU21623XXSP,2013-05-21 11:49:00,
2013-05-21 04:54:00,53.4,46.8,29.97,NNE,22,0.0,0.0,78,0.00,,,0.00,WUHU21623XXSP,2013-05-21 11:54:00,
2013-05-21 04:59:00,53.4,46.8,29.96,NNE,22,0.0,0.0,78,0.00,,,0.00,WUHU21623XXSP,2013-05-21 11:59:00,
2013-05-21 05:04:00,53.4,46.8,29.97,NNE,22,0.0,0.0,78,0.00,,,0.00,WUHU21623XXSP,2013-05-21 12:04:00,
2013-05-21 05:09:00,53.4,46.8,29.96,NNE,22,0.0,0.0,78,0.00,,,0.00,WUHU21623XXSP,2013-05-21 12:09:00,
2013-05-21 05:14:00,53.4,46.8,29.96,NNE,22,0.0,0.0,78,0.00,,,0.00,WUHU21623XXSP,2013-05-21 12:14:00,
2013-05-21 05:19:00,53.4,46.8,29.96,NNE,22,0.0,0.0,78,0.00,,,0.00,WUHU21623XXSP,2013-05-21 12:19:00,
2013-05-21 05:24:00,53.4,46.8,29.96,NNE,22,0.0,0.0,78,0.00,,,0.00,WUHU21623XXSP,2013-05-21 12:24:00,
2013-05-21 05:29:00,53.4,46.8,29.97,NNE,22,0.0,0.0,78,0.00,,,0.00,WUHU21623XXSP,2013-05-21 12:29:00,
2013-05-21 05:34:00,53.4,47.1,29.96,NNE,22,0.0,0.0,79,0.00,,,0.00,WUHU21623XXSP,2013-05-21 12:34:00,
2013-05-21 05:39:00,53.4,47.1,29.97,NNE,22,0.0,0.0,79,0.00,,,0.00,WUHU21623XXSP,2013-05-21 12:39:00,
2013-05-21 05:44:00,53.4,47.1,29.97,NNE,22,0.0,0.0,79,0.00,,,0.00,WUHU21623XXSP,2013-05-21 12:44:00,
2013-05-21 05:49:00,53.4,47.1,29.98,NNE,22,0.0,0.0,79,0.00,,,0.00,WUHU21623XXSP,2013-05-21 12:49:00,
2013-05-21 05:54:00,53.4,47.1,29.98,NNE,22,0.0,0.0,79,0.00,,,0.00,WUHU21623XXSP,2013-05-21 12:54:00,
2013-05-21 05:59:00,53.4,47.1,29.98,NNE,22,0.0,0.0,79,0.00,,,0.00,WUHU21623XXSP,2013-05-21 12:59:00,
2013-05-21 06:04:00,53.4,47.1,29.98,NNE,22,0.0,0.0,79,0.00,,,0.00,WUHU21623XXSP,2013-05-21 13:04:00,
2013-05-21 06:09:00,53.8,47.1,29.98,NNE,22,0.0,0.0,79,0.00,,,0.00,WUHU21623XXSP,2013-05-21 13:09:00,
2013-05-21 06:14:00,53.8,47.3,29.98,NNE,22,0.0,0.0,79,0.00,,,0.00,WUHU21623XXSP,2013-05-21 13:14:00,
2013-05-21 06:19:00,53.8,47.5,29.98,NNE,22,0.0,0.0,79,0.00,,,0.00,WUHU21623XXSP,2013-05-21 13:19:00,
2013-05-21 06:24:00,53.8,47.5,29.99,NNE,22,0.0,0.0,79,0.00,,,0.00,WUHU21623XXSP,2013-05-21 13:24:00,
2013-05-21 06:29:00,53.8,47.5,29.99,NNE,22,0.0,0.0,79,0.00,,,0.00,WUHU21623XXSP,2013-05-21 13:29:00,
2013-05-21 06:34:00,54.0,47.6,29.98,NNE,22,0.0,0.0,79,0.00,,,0.00,WUHU21623XXSP,2013-05-21 13:34:00,
2013-05-21 06:39:00,54.1,47.8,29.98,NNE,22,0.0,0.0,79,0.00,,,0.00,WUHU21623XXSP,2013-05-21 13:39:00,
2013-05-21 06:44:00,54.3,47.9,29.99,NNE,22,0.0,0.0,79,0.00,,,0.00,WUHU21623XXSP,2013-05-21 13:44:00,
2013-05-21 06:49:00,54.5,47.9,29.99,NNE,22,0.0,0.0,79,0.00,,,0.00,WUHU21623XXSP,2013-05-21 13:49:00,
2013-05-21 06:54:00,54.9,48.4,30.00,NNE,22,0.0,0.0,79,0.00,,,0.00,WUHU21623XXSP,2013-05-21 13:54:00,
2013-05-21 06:59:00,55.2,48.6,29.99,NNE,22,0.0,0.0,78,0.00,,,0.00,WUHU21623XXSP,2013-05-21 13:59:00,
2013-05-21 07:04:00,55.4,48.6,30.00,NNE,22,0.0,0.0,78,0.00,,,0.00,WUHU21623XXSP,2013-05-21 14:04:00,
2013-05-21 07:09:00,55.9,48.9,29.99,NNE,22,0.0,0.0,78,0.00,,,0.00,WUHU21623XXSP,2013-05-21 14:09:00,
2013-05-21 07:14:00,56.1,49.3,29.99,NNE,22,0.0,0.0,78,0.00,,,0.00,WUHU21623XXSP,2013-05-21 14:14:00,
2013-05-21 07:19:00,56.5,49.1,29.99,NNE,22,0.0,0.0,77,0.00,,,0.00,WUHU21623XXSP,2013-05-21 14:19:00,
2013-05-21 07:24:00,56.8,49.6,30.00,NNE,22,0.0,0.0,77,0.00,,,0.00,WUHU21623XXSP,2013-05-21 14:24:00,
2013-05-21 07:29:00,57.4,49.5,30.00,NNE,22,0.9,0.9,76,0.00,,,0.00,WUHU21623XXSP,2013-05-21 14:29:00,
2013-05-21 07:34:00,57.7,50.2,30.00,NNE,22,0.0,0.9,76,0.00,,,0.00,WUHU21623XXSP,2013-05-21 14:34:00,
2013-05-21 07:39:00,58.3,50.4,30.00,SE,135,0.0,0.4,75,0.00,,,0.00,WUHU21623XXSP,2013-05-21 14:39:00,
2013-05-21 07:44:00,58.8,50.7,30.00,SSE,157,2.2,2.2,75,0.00,,,0.00,WUHU21623XXSP,2013-05-21 14:44:00,
2013-05-21 07:49:00,59.0,51.1,30.00,SSE,157,1.1,2.2,75,0.00,,,0.00,WUHU21623XXSP,2013-05-21 14:49:00,
2013-05-21 07:54:00,60.1,51.4,30.00,SSE,157,2.2,2.7,73,0.00,,,0.00,WUHU21623XXSP,2013-05-21 14:54:00,
2013-05-21 07:59:00,60.4,51.4,30.00,SSE,157,0.0,2.7,72,0.00,,,0.00,WUHU21623XXSP,2013-05-21 14:59:00,
2013-05-21 08:04:00,60.6,51.3,30.00,SSE,157,0.0,1.1,71,0.00,,,0.00,WUHU21623XXSP,2013-05-21 15:04:00,
2013-05-21 08:09:00,61.2,51.8,30.00,SSE,157,0.0,1.1,71,0.00,,,0.00,WUHU21623XXSP,2013-05-21 15:09:00,
2013-05-21 08:14:00,61.3,51.6,30.00,SSE,157,0.0,1.1,70,0.00,,,0.00,WUHU21623XXSP,2013-05-21 15:14:00,
2013-05-21 08:19:00,61.7,51.5,30.00,SSE,157,0.0,0.0,69,0.00,,,0.00,WUHU21623XXSP,2013-05-21 15:19:00,
2013-05-21 08:24:00,62.1,51.4,30.00,SSE,157,0.0,0.4,68,0.00,,,0.00,WUHU21623XXSP,2013-05-21 15:24:00,
2013-05-21 08:29:00,62.4,51.7,30.00,SSE,157,0.0,2.0,68,0.00,,,0.00,WUHU21623XXSP,2013-05-21 15:29:00,
2013-05-21 08:34:00,62.8,52.0,30.00,SSE,157,0.0,2.0,67,0.00,,,0.00,WUHU21623XXSP,2013-05-21 15:34:00,
2013-05-21 08:39:00,63.1,51.5,30.00,SSE,157,0.0,0.0,66,0.00,,,0.00,WUHU21623XXSP,2013-05-21 15:39:00,
2013-05-21 08:44:00,63.3,51.3,30.00,SSE,157,0.0,0.0,65,0.00,,,0.00,WUHU21623XXSP,2013-05-21 15:44:00,
2013-05-21 08:49:00,63.7,51.7,30.00,SSE,157,5.6,5.6,65,0.00,,,0.00,WUHU21623XXSP,2013-05-21 15:49:00,
2013-05-21 08:54:00,64.0,51.6,30.01,SSE,157,0.0,5.6,64,0.00,,,0.00,WUHU21623XXSP,2013-05-21 15:54:00,
2013-05-21 08:59:00,64.2,51.3,30.01,SSE,157,1.8,1.8,63,0.00,,,0.00,WUHU21623XXSP,2013-05-21 15:59:00,
2013-05-21 09:04:00,64.6,51.2,30.00,SSE,157,0.0,1.8,62,0.00,,,0.00,WUHU21623XXSP,2013-05-21 16:04:00,
2013-05-21 09:09:00,64.6,50.8,30.00,SSE,157,1.3,1.6,61,0.00,,,0.00,WUHU21623XXSP,2013-05-21 16:09:00,
2013-05-21 09:14:00,64.9,51.1,30.00,SSE,157,1.6,2.7,61,0.00,,,0.00,WUHU21623XXSP,2013-05-21 16:14:00,
2013-05-21 09:19:00,65.5,51.3,30.01,SSE,157,0.0,2.7,60,0.00,,,0.00,WUHU21623XXSP,2013-05-21 16:19:00,
2013-05-21 09:24:00,66.0,51.3,30.01,ESE,112,1.6,1.6,59,0.00,,,0.00,WUHU21623XXSP,2013-05-21 16:24:00,
2013-05-21 09:29:00,66.7,51.5,30.01,ESE,112,0.0,1.6,58,0.00,,,0.00,WUHU21623XXSP,2013-05-21 16:29:00,
2013-05-21 09:34:00,66.7,51.0,30.01,NE,45,0.0,0.0,56,0.00,,,0.00,WUHU21623XXSP,2013-05-21 16:34:00,
2013-05-21 09:39:00,66.7,50.5,30.01,NE,45,1.6,1.8,56,0.00,,,0.00,WUHU21623XXSP,2013-05-21 16:39:00,
2013-05-21 09:44:00,66.7,50.5,30.01,NE,45,0.0,2.7,56,0.00,,,0.00,WUHU21623XXSP,2013-05-21 16:44:00,
2013-05-21 09:49:00,67.6,50.8,30.01,North,0,0.0,2.7,55,0.00,,,0.00,WUHU21623XXSP,2013-05-21 16:49:00,
2013-05-21 09:54:00,68.2,50.8,30.01,NNE,22,0.0,0.0,54,0.00,,,0.00,WUHU21623XXSP,2013-05-21 16:54:00,
2013-05-21 09:59:00,68.9,51.5,30.00,WSW,247,0.0,6.9,54,0.00,,,0.00,WUHU21623XXSP,2013-05-21 16:59:00,
2013-05-21 10:04:00,70.2,52.2,30.01,SW,225,0.0,6.9,53,0.00,,,0.00,WUHU21623XXSP,2013-05-21 17:04:00,
2013-05-21 10:09:00,70.7,52.2,30.00,South,180,7.6,7.6,52,0.00,,,0.00,WUHU21623XXSP,2013-05-21 17:09:00,
2013-05-21 10:14:00,71.2,52.2,30.00,SSW,202,0.9,7.6,51,0.00,,,0.00,WUHU21623XXSP,2013-05-21 17:14:00,
2013-05-21 10:19:00,72.0,52.3,30.00,South,180,2.7,2.7,50,0.00,,,0.00,WUHU21623XXSP,2013-05-21 17:19:00,
2013-05-21 10:24:00,72.3,52.0,30.00,South,180,0.0,2.7,49,0.00,,,0.00,WUHU21623XXSP,2013-05-21 17:24:00,
2013-05-21 10:29:00,72.5,52.2,30.00,SW,225,3.8,6.7,49,0.00,,,0.00,WUHU21623XXSP,2013-05-21 17:29:00,
2013-05-21 10:34:00,73.2,52.3,30.01,SSE,157,4.0,6.7,48,0.00,,,0.00,WUHU21623XXSP,2013-05-21 17:34:00,
2013-05-21 10:39:00,73.8,52.8,30.00,South,180,0.4,4.0,48,0.00,,,0.00,WUHU21623XXSP,2013-05-21 17:39:00,
2013-05-21 10:44:00,74.5,52.9,30.01,SSE,157,2.9,2.9,47,0.00,,,0.00,WUHU21623XXSP,2013-05-21 17:44:00,
2013-05-21 10:49:00,75.2,52.3,30.01,SSE,157,0.0,2.9,45,0.00,,,0.00,WUHU21623XXSP,2013-05-21 17:49:00,
2013-05-21 10:54:00,75.4,52.5,30.01,ESE,112,0.0,5.8,45,0.00,,,0.00,WUHU21623XXSP,2013-05-21 17:54:00,
2013-05-21 10:59:00,75.7,52.2,30.01,SSE,157,3.8,5.8,44,0.00,,,0.00,WUHU21623XXSP,2013-05-21 17:59:00,
2013-05-21 11:04:00,76.1,51.9,30.00,North,0,0.0,0.0,43,0.00,,,0.00,WUHU21623XXSP,2013-05-21 18:04:00,
2013-05-21 11:09:00,76.6,51.8,30.01,North,0,0.0,0.0,42,0.00,,,0.00,WUHU21623XXSP,2013-05-21 18:09:00,
2013-05-21 11:14:00,76.8,51.4,30.01,North,0,0.0,0.0,41,0.00,,,0.00,WUHU21623XXSP,2013-05-21 18:14:00,
2013-05-21 11:19:00,77.2,51.7,30.01,SW,225,5.1,5.1,41,0.00,,,0.00,WUHU21623XXSP,2013-05-21 18:19:00,
2013-05-21 11:24:00,77.5,51.4,30.01,SW,225,4.5,8.3,40,0.00,,,0.00,WUHU21623XXSP,2013-05-21 18:24:00,
2013-05-21 11:29:00,77.9,50.9,30.01,NNW,337,0.0,8.3,39,0.00,,,0.00,WUHU21623XXSP,2013-05-21 18:29:00,
2013-05-21 11:34:00,77.5,49.1,30.01,South,180,3.8,3.8,37,0.00,,,0.00,WUHU21623XXSP,2013-05-21 18:34:00,
2013-05-21 11:39:00,77.4,48.9,30.01,South,180,0.9,3.8,37,0.00,,,0.00,WUHU21623XXSP,2013-05-21 18:39:00,
2013-05-21 11:44:00,77.5,49.1,30.01,SSE,157,1.8,1.8,37,0.00,,,0.00,WUHU21623XXSP,2013-05-21 18:44:00,
2013-05-21 11:49:00,78.1,48.8,30.01,SSE,157,0.0,6.7,36,0.00,,,0.00,WUHU21623XXSP,2013-05-21 18:49:00,
2013-05-21 11:54:00,78.4,49.1,30.00,SSW,202,3.4,7.8,36,0.00,,,0.00,WUHU21623XXSP,2013-05-21 18:54:00,
2013-05-21 11:59:00,78.6,48.5,30.00,WSW,247,7.6,7.8,35,0.00,,,0.00,WUHU21623XXSP,2013-05-21 18:59:00,
2013-05-21 12:04:00,79.0,48.8,30.00,SSE,157,1.1,7.6,35,0.00,,,0.00,WUHU21623XXSP,2013-05-21 19:04:00,
2013-05-21 12:09:00,79.2,49.0,30.00,SW,225,5.6,7.6,35,0.00,,,0.00,WUHU21623XXSP,2013-05-21 19:09:00,
2013-05-21 12:14:00,79.5,48.5,30.00,SW,225,3.1,5.6,34,0.00,,,0.00,WUHU21623XXSP,2013-05-21 19:14:00,
2013-05-21 12:19:00,79.9,47.3,29.99,SSE,157,6.3,6.3,32,0.00,,,0.00,WUHU21623XXSP,2013-05-21 19:19:00,
2013-05-21 12:24:00,80.4,47.8,29.99,WSW,247,8.3,8.3,32,0.00,,,0.00,WUHU21623XXSP,2013-05-21 19:24:00,
2013-05-21 12:29:00,80.4,47.0,29.99,SW,225,2.7,8.3,31,0.00,,,0.00,WUHU21623XXSP,2013-05-21 19:29:00,
2013-05-21 12:34:00,80.8,47.2,30.00,SW,225,4.3,7.2,31,0.00,,,0.00,WUHU21623XXSP,2013-05-21 19:34:00,
2013-05-21 12:39:00,81.0,46.7,30.00,SW,225,2.9,7.2,30,0.00,,,0.00,WUHU21623XXSP,2013-05-21 19:39:00,
2013-05-21 12:44:00,81.0,46.5,30.00,SW,225,1.1,5.6,30,0.00,,,0.00,WUHU21623XXSP,2013-05-21 19:44:00,
2013-05-21 12:49:00,81.3,44.9,29.99,SSW,202,4.3,6.5,28,0.00,,,0.00,WUHU21623XXSP,2013-05-21 19:49:00,
2013-05-21 12:54:00,81.3,44.9,29.99,SW,225,3.1,6.5,28,0.00,,,0.00,WUHU21623XXSP,2013-05-21 19:54:00,
2013-05-21 12:59:00,81.1,43.7,29.99,WSW,247,0.0,6.0,27,0.00,,,0.00,WUHU21623XXSP,2013-05-21 19:59:00,
2013-05-21 13:04:00,80.8,43.4,29.99,SSE,157,0.0,7.6,27,0.00,,,0.00,WUHU21623XXSP,2013-05-21 20:04:00,
2013-05-21 13:09:00,81.0,43.6,29.99,SW,225,0.0,7.6,27,0.00,,,0.00,WUHU21623XXSP,2013-05-21 20:09:00,
2013-05-21 13:14:00,81.0,42.5,29.99,SW,225,2.9,6.9,26,0.00,,,0.00,WUHU21623XXSP,2013-05-21 20:14:00,
2013-05-21 13:19:00,81.1,43.7,29.98,SSE,157,1.8,9.2,27,0.00,,,0.00,WUHU21623XXSP,2013-05-21 20:19:00,
2013-05-21 13:24:00,81.3,43.8,29.98,SE,135,6.9,9.2,27,0.00,,,0.00,WUHU21623XXSP,2013-05-21 20:24:00,
2013-05-21 13:29:00,81.3,43.8,29.98,SSE,157,6.0,6.9,27,0.00,,,0.00,WUHU21623XXSP,2013-05-21 20:29:00,
2013-05-21 13:34:00,81.3,43.8,29.99,SE,135,2.9,6.0,27,0.00,,,0.00,WUHU21623XXSP,2013-05-21 20:34:00,
2013-05-21 13:39:00,81.3,43.8,29.99,SW,225,4.7,4.7,27,0.00,,,0.00,WUHU21623XXSP,2013-05-21 20:39:00,
2013-05-21 13:44:00,81.3,43.8,29.99,SW,225,3.8,4.7,27,0.00,,,0.00,WUHU21623XXSP,2013-05-21 20:44:00,
2013-05-21 13:49:00,81.1,43.7,29.98,WSW,247,0.7,3.8,27,0.00,,,0.00,WUHU21623XXSP,2013-05-21 20:49:00,
2013-05-21 13:54:00,81.0,43.6,29.98,SSW,202,0.0,3.8,27,0.00,,,0.00,WUHU21623XXSP,2013-05-21 20:54:00,
2013-05-21 13:59:00,80.6,43.3,29.98,West,270,0.0,6.3,27,0.00,,,0.00,WUHU21623XXSP,2013-05-21 20:59:00,
2013-05-21 14:04:00,80.4,43.1,29.98,SW,225,3.1,6.3,27,0.00,,,0.00,WUHU21623XXSP,2013-05-21 21:04:00,
2013-05-21 14:09:00,80.4,43.1,29.98,SW,225,0.0,3.1,27,0.00,,,0.00,WUHU21623XXSP,2013-05-21 21:09:00,
2013-05-21 14:14:00,80.4,43.1,29.98,SW,225,6.7,7.6,27,0.00,,,0.00,WUHU21623XXSP,2013-05-21 21:14:00,
2013-05-21 14:19:00,80.2,41.9,29.98,SSW,202,2.9,7.6,26,0.00,,,0.00,WUHU21623XXSP,2013-05-21 21:19:00,
2013-05-21 14:24:00,80.2,42.9,29.98,SSW,202,6.5,6.5,27,0.00,,,0.00,WUHU21623XXSP,2013-05-21 21:24:00,
2013-05-21 14:29:00,80.2,41.9,29.98,West,270,0.0,6.5,26,0.00,,,0.00,WUHU21623XXSP,2013-05-21 21:29:00,
2013-05-21 14:34:00,79.7,42.5,29.98,SSE,157,0.0,5.4,27,0.00,,,0.00,WUHU21623XXSP,2013-05-21 21:34:00,
2013-05-21 14:39:00,79.5,43.3,29.98,South,180,0.0,0.0,28,0.00,,,0.00,WUHU21623XXSP,2013-05-21 21:39:00,
2013-05-21 14:44:00,79.5,43.3,29.98,SW,225,0.0,8.9,28,0.00,,,0.00,WUHU21623XXSP,2013-05-21 21:44:00,
2013-05-21 14:49:00,79.5,43.3,29.98,SSE,157,4.9,8.9,28,0.00,,,0.00,WUHU21623XXSP,2013-05-21 21:49:00,
2013-05-21 14:54:00,79.2,43.0,29.98,SE,135,5.1,5.1,28,0.00,,,0.00,WUHU21623XXSP,2013-05-21 21:54:00,
2013-05-21 14:59:00,79.0,43.9,29.98,South,180,0.0,5.1,29,0.00,,,0.00,WUHU21623XXSP,2013-05-21 21:59:00,
2013-05-21 15:04:00,79.0,43.9,29.98,SW,225,0.0,8.1,29,0.00,,,0.00,WUHU21623XXSP,2013-05-21 22:04:00,
2013-05-21 15:09:00,78.8,43.7,29.98,NE,45,0.0,8.1,29,0.00,,,0.00,WUHU21623XXSP,2013-05-21 22:09:00,
2013-05-21 15:14:00,78.6,43.6,29.98,NE,45,6.0,6.5,29,0.00,,,0.00,WUHU21623XXSP,2013-05-21 22:14:00,
2013-05-21 15:19:00,77.9,43.0,29.99,NNW,337,0.0,6.0,29,0.00,,,0.00,WUHU21623XXSP,2013-05-21 22:19:00,
2013-05-21 15:24:00,77.0,41.3,29.99,WSW,247,8.1,8.1,28,0.00,,,0.00,WUHU21623XXSP,2013-05-21 22:24:00,
2013-05-21 15:29:00,75.4,40.8,29.99,SW,225,4.5,15.9,29,0.00,,,0.00,WUHU21623XXSP,2013-05-21 22:29:00,
2013-05-21 15:34:00,74.8,41.4,29.98,SW,225,0.0,15.9,30,0.00,,,0.00,WUHU21623XXSP,2013-05-21 22:34:00,
2013-05-21 15:39:00,74.3,40.9,29.98,WSW,247,0.0,6.7,30,0.00,,,0.00,WUHU21623XXSP,2013-05-21 22:39:00,
2013-05-21 15:44:00,73.9,40.6,29.98,WNW,292,0.0,12.5,30,0.00,,,0.00,WUHU21623XXSP,2013-05-21 22:44:00,
2013-05-21 15:49:00,73.2,40.7,29.98,North,0,0.0,12.5,31,0.00,,,0.00,WUHU21623XXSP,2013-05-21 22:49:00,
2013-05-21 15:54:00,73.0,40.5,29.98,NE,45,0.0,7.4,31,0.00,,,0.00,WUHU21623XXSP,2013-05-21 22:54:00,
2013-05-21 15:59:00,72.7,41.0,29.98,West,270,0.0,7.4,32,0.00,,,0.00,WUHU21623XXSP,2013-05-21 22:59:00,
2013-05-21 16:04:00,72.5,40.9,29.98,NW,315,0.0,5.6,32,0.00,,,0.00,WUHU21623XXSP,2013-05-21 23:04:00,
2013-05-21 16:09:00,72.1,41.3,29.98,North,0,0.0,6.9,33,0.00,,,0.00,WUHU21623XXSP,2013-05-21 23:09:00,
2013-05-21 16:14:00,71.6,41.6,29.97,West,270,7.8,7.8,34,0.00,,,0.00,WUHU21623XXSP,2013-05-21 23:14:00,
2013-05-21 16:19:00,71.4,41.5,29.97,WNW,292,0.0,7.8,34,0.00,,,0.00,WUHU21623XXSP,2013-05-21 23:19:00,
2013-05-21 16:24:00,71.8,41.8,29.97,West,270,0.0,4.9,34,0.00,,,0.00,WUHU21623XXSP,2013-05-21 23:24:00,
2013-05-21 16:29:00,71.8,41.8,29.96,SW,225,5.6,11.9,34,0.00,,,0.00,WUHU21623XXSP,2013-05-21 23:29:00,
2013-05-21 16:34:00,71.8,41.8,29.97,SW,225,8.1,11.9,34,0.00,,,0.00,WUHU21623XXSP,2013-05-21 23:34:00,
2013-05-21 16:39:00,71.8,41.8,29.97,NNE,22,0.0,8.1,34,0.00,,,0.00,WUHU21623XXSP,2013-05-21 23:39:00,
2013-05-21 16:44:00,71.6,41.6,29.97,North,0,0.0,6.9,34,0.00,,,0.00,WUHU21623XXSP,2013-05-21 23:44:00,
2013-05-21 16:49:00,71.2,41.3,29.97,South,180,6.3,6.3,34,0.00,,,0.00,WUHU21623XXSP,2013-05-21 23:49:00,
2013-05-21 16:54:00,71.2,41.3,29.97,WNW,292,1.6,6.3,34,0.00,,,0.00,WUHU21623XXSP,2013-05-21 23:54:00,
2013-05-21 16:59:00,70.5,41.4,29.97,WSW,247,8.9,8.9,35,0.00,,,0.00,WUHU21623XXSP,2013-05-21 23:59:00,
2013-05-21 17:04:00,70.5,41.4,29.98,WNW,292,0.0,8.9,35,0.00,,,0.00,WUHU21623XXSP,2013-05-22 00:04:00,
2013-05-21 17:09:00,70.3,41.2,29.98,SSW,202,0.0,2.9,35,0.00,,,0.00,WUHU21623XXSP,2013-05-22 00:09:00,
2013-05-21 17:14:00,70.0,40.9,29.98,SW,225,0.0,2.9,35,0.00,,,0.00,WUHU21623XXSP,2013-05-22 00:14:00,
2013-05-21 17:19:00,69.6,41.3,29.98,West,270,6.5,6.5,36,0.00,,,0.00,WUHU21623XXSP,2013-05-22 00:19:00,
2013-05-21 17:24:00,69.4,41.1,29.97,SSW,202,5.8,11.2,36,0.00,,,0.00,WUHU21623XXSP,2013-05-22 00:24:00,
2013-05-21 17:29:00,69.3,41.0,29.98,South,180,0.0,11.2,36,0.00,,,0.00,WUHU21623XXSP,2013-05-22 00:29:00,
2013-05-21 17:34:00,69.1,40.8,29.98,SW,225,7.4,7.4,36,0.00,,,0.00,WUHU21623XXSP,2013-05-22 00:34:00,
2013-05-21 17:39:00,69.1,40.8,29.98,SW,225,0.0,7.4,36,0.00,,,0.00,WUHU21623XXSP,2013-05-22 00:39:00,
2013-05-21 17:44:00,68.9,41.4,29.98,NW,315,0.0,6.7,37,0.00,,,0.00,WUHU21623XXSP,2013-05-22 00:44:00,
2013-05-21 17:49:00,68.7,41.2,29.98,South,180,0.0,4.5,37,0.00,,,0.00,WUHU21623XXSP,2013-05-22 00:49:00,
2013-05-21 17:54:00,68.7,41.2,29.98,WSW,247,0.0,6.7,37,0.00,,,0.00,WUHU21623XXSP,2013-05-22 00:54:00,
2013-05-21 17:59:00,68.5,41.1,29.98,SW,225,8.9,8.9,37,0.00,,,0.00,WUHU21623XXSP,2013-05-22 00:59:00,
2013-05-21 18:04:00,68.2,40.7,29.97,South,180,0.0,8.9,37,0.00,,,0.00,WUHU21623XXSP,2013-05-22 01:04:00,
2013-05-21 18:09:00,67.8,41.2,29.98,SSW,202,7.4,7.4,38,0.00,,,0.00,WUHU21623XXSP,2013-05-22 01:09:00,
2013-05-21 18:14:00,67.3,40.7,29.97,NNW,337,0.0,7.4,38,0.00,,,0.00,WUHU21623XXSP,2013-05-22 01:14:00,
2013-05-21 18:19:00,66.9,41.1,29.97,NNW,337,0.0,2.7,39,0.00,,,0.00,WUHU21623XXSP,2013-05-22 01:19:00,
2013-05-21 18:24:00,66.4,40.6,29.97,WSW,247,0.0,2.7,39,0.00,,,0.00,WUHU21623XXSP,2013-05-22 01:24:00,
2013-05-21 18:29:00,65.8,40.9,29.97,SW,225,0.0,3.1,40,0.00,,,0.00,WUHU21623XXSP,2013-05-22 01:29:00,
2013-05-21 18:34:00,65.5,40.5,29.97,WSW,247,0.0,3.1,40,0.00,,,0.00,WUHU21623XXSP,2013-05-22 01:34:00,
2013-05-21 18:39:00,65.3,40.9,29.97,NW,315,0.0,0.0,41,0.00,,,0.00,WUHU21623XXSP,2013-05-22 01:39:00,
2013-05-21 18:44:00,64.8,40.5,29.97,SSW,202,0.0,3.8,41,0.00,,,0.00,WUHU21623XXSP,2013-05-22 01:44:00,
2013-05-21 18:49:00,64.6,40.3,29.97,SW,225,0.0,3.8,41,0.00,,,0.00,WUHU21623XXSP,2013-05-22 01:49:00,
2013-05-21 18:54:00,64.2,40.5,29.97,SW,225,0.0,0.0,42,0.00,,,0.00,WUHU21623XXSP,2013-05-22 01:54:00,
2013-05-21 18:59:00,63.9,40.2,29.97,SW,225,7.4,7.4,42,0.00,,,0.00,WUHU21623XXSP,2013-05-22 01:59:00,
2013-05-21 19:04:00,63.5,39.9,29.97,NE,45,0.0,7.4,42,0.00,,,0.00,WUHU21623XXSP,2013-05-22 02:04:00,
2013-05-21 19:09:00,63.1,40.2,29.96,NNE,22,5.8,5.8,43,0.00,,,0.00,WUHU21623XXSP,2013-05-22 02:09:00,
2013-05-21 19:14:00,62.4,39.5,29.96,North,0,0.0,5.8,43,0.00,,,0.00,WUHU21623XXSP,2013-05-22 02:14:00,
2013-05-21 19:19:00,62.2,39.9,29.96,SSW,202,0.0,0.0,44,0.00,,,0.00,WUHU21623XXSP,2013-05-22 02:19:00,
2013-05-21 19:24:00,61.9,39.6,29.96,ENE,67,0.0,0.0,44,0.00,,,0.00,WUHU21623XXSP,2013-05-22 02:24:00,
2013-05-21 19:29:00,61.5,39.8,29.96,WNW,292,0.0,0.0,45,0.00,,,0.00,WUHU21623XXSP,2013-05-22 02:29:00,
2013-05-21 19:34:00,61.3,39.7,29.97,SW,225,0.0,4.0,45,0.00,,,0.00,WUHU21623XXSP,2013-05-22 02:34:00,
2013-05-21 19:39:00,61.0,39.4,29.97,North,0,3.4,4.0,45,0.00,,,0.00,WUHU21623XXSP,2013-05-22 02:39:00,
2013-05-21 19:44:00,60.4,38.9,29.97,WNW,292,2.9,3.4,45,0.00,,,0.00,WUHU21623XXSP,2013-05-22 02:44:00,
2013-05-21 19:49:00,60.1,39.1,29.97,NW,315,7.4,7.4,46,0.00,,,0.00,WUHU21623XXSP,2013-05-22 02:49:00,
2013-05-21 19:54:00,59.7,38.8,29.97,West,270,0.0,7.4,46,0.00,,,0.00,WUHU21623XXSP,2013-05-22 02:54:00,
2013-05-21 19:59:00,59.2,38.3,29.97,NNE,22,7.6,7.6,46,0.00,,,0.00,WUHU21623XXSP,2013-05-22 02:59:00,
2013-05-21 20:04:00,58.8,38.0,29.98,South,180,0.0,7.6,46,0.00,,,0.00,WUHU21623XXSP,2013-05-22 03:04:00,
2013-05-21 20:09:00,58.8,38.0,29.98,ENE,67,0.0,0.0,46,0.00,,,0.00,WUHU21623XXSP,2013-05-22 03:09:00,
2013-05-21 20:14:00,58.5,37.1,29.98,SW,225,0.0,0.0,45,0.00,,,0.00,WUHU21623XXSP,2013-05-22 03:14:00,
2013-05-21 20:19:00,58.1,36.8,29.98,WSW,247,0.0,0.0,45,0.00,,,0.00,WUHU21623XXSP,2013-05-22 03:19:00,
2013-05-21 20:24:00,57.9,36.6,29.98,SSW,202,11.2,11.2,45,0.00,,,0.00,WUHU21623XXSP,2013-05-22 03:24:00,
2013-05-21 20:29:00,57.6,36.9,29.98,SW,225,8.3,11.2,46,0.00,,,0.00,WUHU21623XXSP,2013-05-22 03:29:00,
2013-05-21 20:34:00,57.2,37.1,29.98,WSW,247,6.7,8.3,47,0.00,,,0.00,WUHU21623XXSP,2013-05-22 03:34:00,
2013-05-21 20:39:00,56.8,36.8,29.98,SW,225,0.0,6.7,47,0.00,,,0.00,WUHU21623XXSP,2013-05-22 03:39:00,
2013-05-21 20:44:00,56.5,37.0,29.99,NNE,22,5.1,5.1,48,0.00,,,0.00,WUHU21623XXSP,2013-05-22 03:44:00,
2013-05-21 20:49:00,56.3,36.8,29.98,North,0,0.0,5.1,48,0.00,,,0.00,WUHU21623XXSP,2013-05-22 03:49:00,
2013-05-21 20:54:00,55.9,37.0,29.98,WSW,247,0.0,0.0,49,0.00,,,0.00,WUHU21623XXSP,2013-05-22 03:54:00,
2013-05-21 20:59:00,55.9,37.0,29.98,North,0,0.0,0.0,49,0.00,,,0.00,WUHU21623XXSP,2013-05-22 03:59:00,
2013-05-21 21:01:00,55.8,37.4,29.98,NE,45,0.0,0.0,50,0.00,,,0.00,WUHU21623XXSP,2013-05-22 04:01:00,
2013-05-21 21:06:00,55.6,37.2,29.98,SW,225,0.0,0.0,50,0.00,,,0.00,WUHU21623XXSP,2013-05-22 04:06:00,
2013-05-21 21:11:00,55.4,37.0,29.99,West,270,0.0,7.8,50,0.00,,,0.00,WUHU21623XXSP,2013-05-22 04:11:00,
2013-05-21 21:16:00,55.2,36.9,29.99,WNW,292,0.0,7.8,50,0.00,,,0.00,WUHU21623XXSP,2013-05-22 04:16:00,
2013-05-21 21:21:00,55.0,36.7,29.99,WSW,247,0.0,3.4,50,0.00,,,0.00,WUHU21623XXSP,2013-05-22 04:21:00,
2013-05-21 21:26:00,55.0,36.7,30.00,SW,225,0.0,0.0,50,0.00,,,0.00,WUHU21623XXSP,2013-05-22 04:26:00,
2013-05-21 21:31:00,54.7,36.9,29.99,SSW,202,0.0,0.0,51,0.00,,,0.00,WUHU21623XXSP,2013-05-22 04:31:00,
2013-05-21 21:36:00,54.5,36.7,30.00,WSW,247,0.0,0.0,51,0.00,,,0.00,WUHU21623XXSP,2013-05-22 04:36:00,
2013-05-21 21:41:00,54.3,36.5,29.99,NNE,22,0.0,0.0,51,0.00,,,0.00,WUHU21623XXSP,2013-05-22 04:41:00,
2013-05-21 21:46:00,54.1,36.4,29.99,WSW,247,0.0,0.0,51,0.00,,,0.00,WUHU21623XXSP,2013-05-22 04:46:00,
2013-05-21 21:51:00,54.0,36.2,30.00,WSW,247,0.0,0.0,51,0.00,,,0.00,WUHU21623XXSP,2013-05-22 04:51:00,
2013-05-21 21:56:00,53.8,36.0,30.00,SSW,202,0.0,0.0,51,0.00,,,0.00,WUHU21623XXSP,2013-05-22 04:56:00,
2013-05-21 22:01:00,53.8,36.0,30.01,SSW,202,0.0,0.0,51,0.00,,,0.00,WUHU21623XXSP,2013-05-22 05:01:00,
2013-05-21 22:06:00,53.4,36.2,30.00,SSW,202,0.0,0.0,52,0.00,,,0.00,WUHU21623XXSP,2013-05-22 05:06:00,
2013-05-21 22:11:00,53.4,36.2,30.00,SSW,202,0.0,0.0,52,0.00,,,0.00,WUHU21623XXSP,2013-05-22 05:11:00,
2013-05-21 22:16:00,53.2,36.0,30.01,SSW,202,0.0,0.0,52,0.00,,,0.00,WUHU21623XXSP,2013-05-22 05:16:00,
2013-05-21 22:21:00,52.9,35.7,30.01,West,270,0.0,0.0,52,0.00,,,0.00,WUHU21623XXSP,2013-05-22 05:21:00,
2013-05-21 22:26:00,52.9,36.1,30.02,WSW,247,0.0,0.0,53,0.00,,,0.00,WUHU21623XXSP,2013-05-22 05:26:00,
2013-05-21 22:31:00,52.5,35.8,30.01,SW,225,0.0,0.0,53,0.00,,,0.00,WUHU21623XXSP,2013-05-22 05:31:00,
2013-05-21 22:36:00,52.5,35.8,30.02,SW,225,0.0,0.0,53,0.00,,,0.00,WUHU21623XXSP,2013-05-22 05:36:00,
2013-05-21 22:41:00,52.3,35.6,30.02,SW,225,0.0,0.0,53,0.00,,,0.00,WUHU21623XXSP,2013-05-22 05:41:00,
2013-05-21 22:46:00,52.3,35.6,30.02,SW,225,0.0,0.0,53,0.00,,,0.00,WUHU21623XXSP,2013-05-22 05:46:00,
2013-05-21 22:51:00,52.2,35.5,30.01,WSW,247,0.0,0.0,53,0.00,,,0.00,WUHU21623XXSP,2013-05-22 05:51:00,
2013-05-21 22:56:00,52.0,35.3,30.01,West,270,0.0,0.0,53,0.00,,,0.00,WUHU21623XXSP,2013-05-22 05:56:00,
2013-05-21 23:01:00,52.0,35.8,30.01,WSW,247,0.0,0.0,54,0.00,,,0.00,WUHU21623XXSP,2013-05-22 06:01:00,
2013-05-21 23:06:00,52.0,35.8,30.01,SSW,202,0.0,0.0,54,0.00,,,0.00,WUHU21623XXSP,2013-05-22 06:06:00,
2013-05-21 23:11:00,52.0,35.8,30.01,SW,225,0.0,0.0,54,0.00,,,0.00,WUHU21623XXSP,2013-05-22 06:11:00,
2013-05-21 23:16:00,52.0,36.2,30.02,West,270,0.0,0.0,55,0.00,,,0.00,WUHU21623XXSP,2013-05-22 06:16:00,
2013-05-21 23:21:00,52.0,36.2,30.01,SW,225,0.0,0.0,55,0.00,,,0.00,WUHU21623XXSP,2013-05-22 06:21:00,
2013-05-21 23:26:00,52.0,36.2,30.01,SSW,202,0.0,0.0,55,0.00,,,0.00,WUHU21623XXSP,2013-05-22 06:26:00,
2013-05-21 23:31:00,51.8,36.0,30.02,West,270,0.0,0.0,55,0.00,,,0.00,WUHU21623XXSP,2013-05-22 06:31:00,
2013-05-21 23:36:00,51.8,36.0,30.01,WNW,292,0.0,0.0,55,0.00,,,0.00,WUHU21623XXSP,2013-05-22 06:36:00,
2013-05-21 23:41:00,51.8,36.0,30.01,SSW,202,0.0,0.0,55,0.00,,,0.00,WUHU21623XXSP,2013-05-22 06:41:00,
2013-05-21 23:46:00,51.6,35.9,30.01,SW,225,0.0,8.5,55,0.00,,,0.00,WUHU21623XXSP,2013-05-22 06:46:00,
2013-05-21 23:51:00,51.6,35.9,30.01,SW,225,0.0,8.5,55,0.00,,,0.00,WUHU21623XXSP,2013-05-22 06:51:00,
2013-05-21 23:56:00,51.6,35.9,30.01,WSW,247,0.0,0.0,55,0.00,,,0.00,WUHU21623XXSP,2013-05-22 06:56:00,